TimeEDT,TemperatureF,Dew PointF,Humidity,Sea Level PressureIn,VisibilityMPH,Wind Direction,Wind SpeedMPH,Gust SpeedMPH,PrecipitationIn,Events,Conditions,WindDirDegrees,DateUTC
12:53 AM,48.0,36.0,63,30.10,10.0,Calm,Calm,-,N/A,,Overcast,0,2012-10-07 04:53:00
1:53 AM,48.0,35.1,61,30.09,10.0,Variable,3.5,-,N/A,,Overcast,0,2012-10-07 05:53:00
2:53 AM,46.9,37.9,71,30.09,10.0,Calm,Calm,-,N/A,,Overcast,0,2012-10-07 06:53:00
3:53 AM,46.9,37.0,68,30.07,10.0,Calm,Calm,-,N/A,,Overcast,0,2012-10-07 07:53:00
4:53 AM,46.9,37.9,71,30.07,10.0,Calm,Calm,-,N/A,,Overcast,0,2012-10-07 08:53:00
5:53 AM,46.0,37.9,73,30.07,10.0,Calm,Calm,-,N/A,,Overcast,0,2012-10-07 09:53:00
6:53 AM,46.0,39.0,76,30.07,10.0,Calm,Calm,-,N/A,,Overcast,0,2012-10-07 10:53:00
7:53 AM,45.0,39.0,80,30.10,10.0,Calm,Calm,-,N/A,,Overcast,0,2012-10-07 11:53:00
8:53 AM,46.0,39.0,76,30.10,10.0,Calm,Calm,-,N/A,,Overcast,0,2012-10-07 12:53:00
9:53 AM,46.9,39.0,74,30.12,10.0,Calm,Calm,-,N/A,,Overcast,0,2012-10-07 13:53:00
10:53 AM,48.0,39.0,71,30.13,10.0,Calm,Calm,-,N/A,,Overcast,0,2012-10-07 14:53:00
11:53 AM,48.0,39.0,71,30.15,10.0,Variable,5.8,-,N/A,,Overcast,0,2012-10-07 15:53:00
12:53 PM,48.0,39.9,74,30.17,10.0,Variable,5.8,-,N/A,,Overcast,0,2012-10-07 16:53:00
1:53 PM,48.0,39.0,71,30.16,10.0,Variable,3.5,-,N/A,,Overcast,0,2012-10-07 17:53:00
2:53 PM,53.1,39.9,61,30.14,10.0,Variable,3.5,-,N/A,,Scattered Clouds,0,2012-10-07 18:53:00
3:53 PM,52.0,37.9,59,30.14,10.0,Calm,Calm,-,N/A,,Mostly Cloudy,0,2012-10-07 19:53:00
4:53 PM,53.1,36.0,52,30.14,10.0,Variable,3.5,-,N/A,,Overcast,0,2012-10-07 20:53:00
5:53 PM,53.1,37.0,55,30.14,10.0,Calm,Calm,-,N/A,,Clear,0,2012-10-07 21:53:00
6:53 PM,50.0,36.0,59,30.15,10.0,Calm,Calm,-,N/A,,Partly Cloudy,0,2012-10-07 22:53:00
7:53 PM,48.9,36.0,61,30.16,10.0,Calm,Calm,-,N/A,,Scattered Clouds,0,2012-10-07 23:53:00
8:53 PM,46.0,36.0,68,30.17,10.0,Calm,Calm,-,N/A,,Clear,0,2012-10-08 00:53:00
9:53 PM,44.1,35.1,71,30.17,10.0,Calm,Calm,-,N/A,,Clear,0,2012-10-08 01:53:00
10:53 PM,45.0,35.1,68,30.18,10.0,Calm,Calm,-,N/A,,Clear,0,2012-10-08 02:53:00
11:53 PM,44.1,36.0,73,30.18,10.0,Calm,Calm,-,N/A,,Clear,0,2012-10-08 03:53:00